Vorticity
8 19 10 14 9 12 9 7 10 7 10 7 9 9 8 9 9 8 6 7 6 6 7 7 8 9 13 13 13 13 15 16 21 22 11 9 13 18 14 9 4 5 2 7
16 12 12 13 9 9 10 8 10 10 10 6 9 9 11 11 8 11 10 8 8 6 7 7 7 8 9 11 12 13 9 12 12 15 19 27 9 10 11 14 22 10 1 -3
16 10 13 8 12 8 8 10 9 9 8 7 6 9 11 9 9 11 10 9 10 7 6 7 7 7 9 9 10 8 10 12 10 9 14 23 27 17 10 6 10 15 22 33
13 14 8 10 9 8 12 8 9 11 6 6 10 9 8 8 9 10 9 8 9 7 7 7 7 6 7 9 10 9 8 8 9 12 11 10 21 24 21 12 11 8 8 6
10 10 7 8 8 10 7 9 7 4 8 8 6 9 13 8 7 9 9 10 8 9 10 8 7 7 7 9 9 9 7 6 8 10 15 12 12 15 29 22 14 7 10 9
7 8 6 7 10 8 9 7 11 10 5 5 6 6 7 5 5 5 4 4 5 6 8 9 8 8 9 9 9 10 8 7 7 10 8 9 13 7 17 21 33 17 7 7
8 8 8 4 9 7 7 6 5 7 7 5 7 6 7 7 7 7 6 5 6 7 8 9 9 10 10 9 8 11 10 8 7 8 7 7 9 15 17 18 7 36 23 7
9 7 4 6 10 6 7 8 7 6 3 2 2 4 5 5 6 7 7 8 8 8 9 9 9 11 11 11 11 10 11 10 10 8 7 9 8 9 15 19 16 15 13 40
7 4 8 9 6 7 6 4 5 7 5 5 6 6 5 6 9 9 9 10 10 11 10 9 11 11 12 11 13 10 10 10 14 13 8 5 6 8 8 7 6 6 8 11
6 6 6 10 7 7 6 5 5 3 1 3 3 5 7 7 11 13 12 12 12 12 10 12 16 10 15 14 14 11 10 12 14 15 10 6 5 5 3 3 5 8 9 9
7 6 8 7 6 6 5 5 5 4 5 4 4 6 5 7 12 18 15 15 11 10 13 16 16 16 15 17 14 11 12 13 12 12 9 6 7 6 7 9 13 13 16 13
6 8 7 6 7 6 4 5 3 4 3 5 8 8 9 16 16 13 14 12 9 11 15 17 19 19 16 15 12 12 13 15 15 15 12 12 12 10 6 5 3 8 10 9
6 9 6 6 5 3 3 3 3 1 4 7 9 12 13 19 16 14 12 12 13 14 20 25 24 21 9 11 7 13 8 6 11 5 8 10 6 6 13 7 12 12 8 20
8 6 7 7 5 5 3 3 3 3 6 9 11 13 15 15 15 13 11 14 17 19 25 27 8 21 -4 -3 19 10 6 10 4 6 4 5 11 10 -1 -2 3 -10 10 5
7 7 6 5 4 3 3 4 5 5 6 6 12 17 14 14 12 14 14 17 20 21 20 27 0 3 16 17 15 8 6 -2 8 4 4 7 3 1 2 6 -15 -0 1 6
7 6 4 4 4 4 5 4 6 10 13 18 19 13 13 11 11 16 21 23 24 3 24 4 6 -9 20 -14 -1 2 1 1 6 4 1 5 5 4 4 8 -5 1 -4 -8
4 4 2 4 6 7 8 11 14 14 16 12 11 11 10 9 11 17 21 19 1 8 5 -10 32 3 -4 -4 15 22 -6 -15 14 15 4 11 12 8 6 8 12 4 -4 1
2 2 4 4 5 6 6 7 7 9 7 8 11 12 11 11 14 15 20 24 12 -2 21 12 1 3 -1 -1 5 8 15 18 19 17 7 7 9 3 6 -2 4 -2 2 6
5 6 7 9 10 10 10 7 9 11 11 10 13 14 19 20 21 19 22 25 13 -3 14 20 28 26 22 21 23 20 15 5 5 3 3 2 4 10 14 13 6 6 6 7
7 8 8 6 6 5 8 11 9 10 12 14 17 18 18 18 18 17 16 16 19 34 3 -11 11 18 7 0 8 8 14 8 12 7 11 7 9 7 2 7 7 11 20 69
5 5 4 7 9 11 10 10 9 12 15 17 20 23 21 21 20 20 19 20 23 22 26 22 6 2 0 0 3 2 1 -1 1 7 -0 -5 23 22 10 7 28 50 31 27
9 12 13 9 7 7 10 15 15 15 20 23 24 21 20 19 18 19 20 20 21 24 20 27 23 24 22 17 11 5 1 3 1 3 25 48 25 27 44 53 24 24 24 15
7 7 6 7 6 11 18 22 22 25 24 24 23 20 18 18 19 19 21 23 21 19 25 12 24 24 27 27 29 35 35 41 62 34 26 26 7 23 24 16 20 19 14 12
8 6 7 12 15 21 21 26 25 22 18 20 16 15 17 20 21 23 21 19 19 18 22 18 15 14 9 11 17 21 24 18 9 18 21 19 20 20 19 17 15 15 10 17
7 10 16 20 25 23 21 21 19 17 18 16 17 16 18 21 20 19 18 18 19 19 17 19 21 16 9 10 11 17 8 15 17 16 17 19 21 19 14 12 14 12 20 14
14 22 21 20 22 18 17 17 17 18 18 18 17 16 19 19 18 18 14 13 15 15 14 14 13 11 11 15 21 16 17 17 15 16 16 17 17 12 11 14 14 20 11 10
23 22 23 20 19 19 17 16 16 18 19 18 18 18 15 13 9 13 18 18 16 14 14 14 11 11 13 15 14 15 17 15 16 16 15 15 11 12 14 17 18 10 16 22
Height
5773 5771 5768 5764 5762 5759 5756 5752 5751 5747 5743 5737 5735 5729 5724 5721 5717 5713 5708 5704 5699 5694 5689 5684 5678 5673 5668 5663 5658 5653 5649 5645 5642 5640 5638 5638 5637 5637 5636 5637 5636 5636 5637 5638
5766 5763 5761 5758 5754 5751 5749 5746 5743 5740 5738 5731 5728 5723 5718 5715 5711 5707 5702 5697 5692 5687 5681 5676 5671 5666 5660 5655 5650 5646 5642 5637 5633 5630 5627 5626 5626 5625 5624 5623 5623 5623 5623 5625
5759 5757 5754 5752 5749 5745 5742 5739 5736 5733 5728 5725 5720 5716 5711 5706 5702 5700 5695 5689 5684 5679 5673 5668 5663 5658 5652 5647 5642 5637 5633 5629 5625 5620 5616 5613 5612 5612 5612 5611 5609 5609 5608 5609
5750 5749 5747 5746 5742 5738 5736 5732 5729 5725 5721 5717 5712 5709 5704 5698 5693 5689 5686 5680 5676 5670 5665 5658 5653 5648 5643 5638 5634 5630 5625 5620 5616 5612 5608 5604 5600 5598 5597 5597 5597 5596 5596 5595
5742 5741 5740 5737 5734 5731 5728 5727 5721 5718 5713 5709 5705 5700 5697 5691 5685 5680 5676 5671 5666 5660 5655 5650 5644 5639 5634 5629 5624 5620 5615 5611 5607 5603 5599 5596 5592 5589 5586 5584 5583 5584 5583 5583
5735 5733 5731 5728 5727 5723 5720 5717 5716 5711 5706 5701 5697 5693 5688 5681 5675 5670 5664 5658 5653 5649 5645 5641 5635 5629 5624 5619 5614 5610 5605 5601 5597 5593 5590 5586 5582 5579 5576 5573 5571 5570 5571 5569
5727 5725 5725 5721 5718 5716 5712 5712 5705 5701 5698 5693 5689 5685 5680 5674 5668 5661 5656 5650 5643 5638 5633 5629 5624 5619 5614 5608 5603 5599 5595 5591 5587 5583 5579 5575 5572 5568 5565 5562 5560 5558 5557 5556
5720 5718 5715 5715 5711 5710 5704 5701 5697 5693 5689 5684 5679 5675 5669 5664 5658 5653 5646 5640 5634 5628 5622 5615 5612 5606 5602 5596 5591 5587 5584 5580 5576 5573 5569 5566 5562 5559 5555 5552 5549 5547 5545 5542
5713 5711 5706 5705 5702 5698 5694 5692 5688 5684 5680 5675 5671 5665 5659 5653 5646 5640 5634 5627 5621 5615 5609 5603 5597 5592 5589 5583 5579 5575 5571 5568 5565 5562 5559 5556 5553 5549 5546 5543 5540 5536 5532 5530
5702 5703 5698 5697 5692 5689 5686 5683 5679 5674 5670 5665 5660 5653 5647 5641 5635 5628 5620 5613 5607 5601 5595 5590 5584 5577 5576 5570 5566 5563 5560 5557 5553 5551 5548 5545 5542 5539 5536 5532 5530 5526 5521 5517
5694 5692 5691 5687 5684 5680 5676 5672 5668 5663 5658 5652 5645 5640 5633 5627 5620 5613 5606 5599 5592 5585 5580 5575 5569 5563 5561 5557 5553 5550 5548 5545 5542 5539 5537 5535 5531 5529 5525 5520 5515 5512 5508 5505
5684 5681 5680 5676 5673 5669 5665 5660 5656 5651 5645 5637 5630 5624 5618 5611 5604 5598 5591 5584 5576 5570 5563 5559 5554 5551 5547 5543 5541 5538 5536 5533 5531 5528 5525 5522 5520 5518 5514 5510 5506 5501 5496 5491
5675 5672 5669 5665 5661 5657 5653 5648 5643 5636 5629 5623 5616 5608 5601 5595 5589 5582 5575 5568 5561 5555 5549 5544 5540 5537 5533 5532 5530 5527 5525 5523 5520 5517 5514 5511 5508 5506 5503 5500 5494 5489 5483 5478
5666 5664 5659 5654 5650 5646 5641 5635 5628 5621 5613 5605 5598 5591 5583 5577 5571 5564 5558 5552 5546 5540 5535 5531 5528 5525 5522 5521 5518 5516 5514 5511 5508 5506 5503 5499 5496 5492 5488 5485 5482 5478 5470 5463
5655 5651 5647 5643 5637 5632 5627 5621 5613 5606 5598 5589 5580 5573 5566 5560 5554 5548 5540 5535 5530 5525 5522 5519 5517 5514 5511 5509 5505 5503 5501 5498 5495 5492 5490 5486 5483 5479 5475 5470 5466 5463 5458 5451
5642 5637 5633 5628 5623 5617 5610 5603 5596 5587 5580 5572 5565 5558 5551 5544 5537 5532 5525 5519 5515 5511 5508 5505 5504 5500 5497 5494 5492 5490 5488 5485 5481 5478 5475 5471 5467 5463 5460 5455 5450 5445 5441 5436
5629 5624 5618 5613 5607 5601 5592 5585 5577 5570 5563 5556 5549 5542 5535 5527 5520 5514 5509 5505 5501 5498 5494 5490 5487 5484 5481 5479 5476 5473 5471 5469 5465 5462 5459 5456 5452 5447 5443 5439 5434 5429 5424 5418
5615 5610 5604 5598 5591 5584 5576 5568 5560 5553 5546 5539 5532 5524 5516 5507 5500 5496 5491 5488 5483 5481 5477 5473 5471 5468 5464 5461 5458 5455 5453 5450 5448 5445 5442 5440 5436 5431 5427 5422 5417 5411 5407 5401
5602 5596 5589 5581 5573 5565 5557 5551 5544 5536 5527 5517 5509 5503 5494 5486 5478 5473 5469 5467 5464 5460 5459 5454 5452 5450 5447 5444 5441 5439 5436 5434 5431 5429 5426 5423 5419 5415 5410 5405 5401 5395 5389 5382
5586 5579 5571 5563 5556 5547 5540 5531 5521 5513 5502 5490 5483 5476 5470 5464 5456 5451 5446 5444 5440 5436 5436 5434 5432 5430 5428 5425 5423 5421 5419 5417 5414 5412 5409 5405 5401 5397 5393 5388 5382 5377 5372 5366
5569 5561 5553 5545 5537 5529 5518 5507 5496 5489 5481 5472 5460 5454 5447 5442 5435 5429 5424 5421 5420 5415 5413 5412 5410 5409 5408 5407 5405 5403 5401 5399 5396 5393 5389 5385 5380 5376 5371 5366 5363 5360 5356 5353
5550 5542 5533 5526 5519 5511 5502 5487 5474 5465 5457 5451 5444 5435 5427 5422 5416 5412 5407 5402 5401 5397 5394 5393 5391 5389 5389 5387 5386 5385 5384 5381 5377 5373 5369 5364 5361 5357 5352 5348 5346 5346 5344 5342
5532 5525 5517 5507 5497 5489 5482 5471 5459 5449 5440 5433 5426 5419 5412 5406 5400 5395 5393 5389 5385 5382 5379 5378 5376 5375 5373 5371 5370 5369 5367 5365 5361 5356 5353 5349 5346 5344 5340 5338 5336 5336 5335 5333
5516 5507 5497 5486 5475 5466 5458 5452 5442 5434 5426 5419 5411 5405 5399 5395 5391 5384 5380 5376 5373 5370 5368 5366 5365 5363 5362 5360 5358 5356 5353 5351 5348 5345 5341 5338 5336 5333 5331 5329 5329 5328 5326 5325
5497 5485 5475 5465 5455 5446 5438 5432 5426 5419 5413 5407 5400 5394 5388 5384 5379 5375 5371 5368 5364 5362 5359 5356 5354 5353 5352 5350 5347 5345 5343 5341 5338 5335 5332 5329 5327 5325 5324 5322 5321 5320 5318 5317
5476 5466 5455 5446 5437 5429 5422 5416 5411 5405 5399 5394 5389 5383 5379 5374 5370 5367 5363 5360 5357 5354 5351 5349 5347 5345 5343 5340 5338 5335 5334 5331 5329 5326 5324 5322 5320 5319 5318 5316 5315 5313 5312 5311
5457 5446 5436 5428 5423 5414 5408 5402 5396 5392 5387 5382 5378 5373 5369 5366 5362 5359 5356 5353 5350 5347 5344 5342 5340 5337 5335 5332 5330 5328 5325 5323 5321 5319 5318 5316 5314 5313 5311 5310 5309 5308 5307 5306